SCP
2 1 1 1 2 3 3 3 2 2 3 4 5 4 4 2 1 1 1 1 1 0 0 0 0 0 0 1 1 1 1 1 2 2 2 2 2 2
2 1 1 1 2 2 3 3 3 2 3 4 5 5 4 2 1 1 1 1 1 0 0 0 0 0 0 0 0 1 1 1 2 2 2 1 1 1
1 1 1 1 1 1 2 3 3 2 3 4 4 4 4 2 1 1 1 1 1 0 0 0 0 0 0 0 0 0 0 1 1 1 1 1 1 1
1 1 1 1 1 1 1 2 2 2 3 3 3 3 3 2 1 0 0 0 0 0 0 0 0 0 0 0 0 0 0 0 0 0 0 0 1 1
1 1 1 1 1 1 1 2 2 2 2 2 2 2 2 1 1 0 0 0 0 0 0 0 0 0 0 0 0 0 0 0 0 0 0 0 0 0
1 1 1 1 1 1 2 2 2 2 2 1 1 1 1 1 1 0 0 0 0 0 0 0 0 0 0 0 0 0 0 0 0 0 0 0 0 0
1 1 1 1 1 1 1 2 2 1 1 1 1 1 1 1 0 0 0 0 0 0 0 0 0 0 0 0 0 0 0 0 0 0 0 0 0 0
1 1 1 1 1 1 1 1 1 1 1 1 0 0 0 1 1 0 0 0 0 0 0 0 0 0 0 0 0 0 0 0 0 0 0 0 0 0
1 1 1 1 1 1 1 1 1 1 1 1 1 0 0 0 1 0 0 0 0 0 0 0 0 0 0 0 0 0 0 0 0 0 0 0 0 0
1 1 1 1 1 1 1 1 1 1 0 0 0 0 0 0 0 0 0 0 0 0 0 0 0 0 0 0 0 0 0 0 0 0 0 0 0 0
1 1 1 1 1 1 1 1 1 1 0 0 0 0 0 0 0 0 0 0 0 0 1 1 0 0 0 0 0 0 0 0 0 0 0 0 0 0
1 1 1 0 0 0 1 1 1 0 0 0 0 0 0 0 0 0 0 0 0 0 1 1 1 0 0 0 0 0 0 0 0 0 0 0 0 0
0 0 0 0 0 0 0 0 0 0 0 0 0 0 0 0 0 1 1 1 1 1 1 1 1 1 0 0 0 0 0 0 0 0 0 0 0 0
0 0 0 0 0 0 0 0 0 0 0 1 1 0 1 1 1 1 1 2 2 1 1 1 1 1 0 0 0 0 0 1 1 0 0 0 0 0
0 0 0 0 0 0 0 0 0 0 0 1 1 1 1 1 1 2 2 2 2 1 1 1 1 1 0 0 0 0 0 0 1 1 1 0 0 0
0 0 0 0 0 0 0 0 0 0 1 1 1 1 1 1 1 2 2 2 1 1 1 1 1 1 1 0 0 0 0 0 1 1 1 1 1 1
0 0 0 0 0 0 0 0 0 1 1 1 1 1 1 1 1 1 1 1 1 1 1 1 1 1 1 0 0 0 0 1 1 1 1 1 1 1
0 0 0 0 0 0 0 0 1 1 1 1 1 1 1 1 1 1 1 1 1 1 1 1 1 1 1 0 0 0 1 1 1 1 1 1 1 0
0 0 0 0 0 0 0 0 0 1 1 0 0 0 0 0 0 0 0 0 0 0 0 0 0 0 0 0 0 0 1 1 1 1 1 1 0 0
0 0 0 0 0 1 0 0 0 0 0 0 0 0 0 0 0 0 0 0 0 0 0 0 0 0 0 0 0 0 0 1 1 1 1 1 0 0
0 0 0 1 1 1 1 0 0 0 0 0 0 0 0 0 0 0 0 0 0 0 0 0 0 0 0 1 1 0 0 1 1 1 1 0 0 0
1 1 1 1 1 1 1 1 0 0 0 1 1 0 0 0 0 0 0 0 0 0 0 0 0 0 0 1 1 1 0 1 1 0 0 0 0 0
1 1 1 1 1 1 1 1 0 0 0 1 1 1 0 0 0 0 0 0 0 0 0 0 0 0 0 1 1 1 0 0 0 0 0 0 0 0
Wind_Speed
3 3 3 3 3 3 3 3 3 5 5 3 2 2 2 2 4 4 4 7 9 10 10 10 10 10 9 8 8 7 7 7 7 8 9 9 10 10
2 3 3 4 3 3 3 3 3 3 5 3 2 2 2 2 3 3 4 7 10 11 10 10 10 10 10 9 8 8 8 7 7 7 8 8 8 9
3 3 4 4 3 3 3 3 3 3 4 4 3 2 2 3 3 3 4 4 5 10 11 11 11 11 11 10 9 9 8 7 7 7 7 8 8 8
4 3 4 3 3 3 3 4 3 3 3 5 4 3 3 3 3 4 4 4 3 7 10 11 11 11 10 10 9 9 9 8 7 7 7 7 8 8
3 3 3 4 4 3 4 4 3 4 3 4 5 3 3 3 3 4 4 3 4 5 7 10 11 11 11 10 10 10 9 9 8 8 8 8 7 8
3 4 4 4 4 5 5 4 4 4 4 4 4 4 3 3 2 2 3 3 3 4 3 6 9 11 11 11 11 11 10 10 9 9 8 8 7 7
4 4 5 4 5 5 5 4 4 4 4 4 4 4 3 2 2 2 3 3 3 3 3 4 4 4 6 9 11 12 12 11 11 10 9 9 8 8
5 5 5 5 5 6 8 8 6 5 5 4 4 4 5 4 3 3 2 3 3 2 2 3 3 3 4 5 9 12 13 13 12 11 11 10 9 9
5 5 6 5 3 3 5 7 8 10 10 7 6 7 6 5 4 4 3 4 4 3 2 4 3 4 4 6 10 12 13 13 13 12 11 11 10 10
5 4 5 4 4 4 5 5 5 5 6 6 7 7 7 5 4 4 4 4 4 4 3 4 4 4 5 3 8 11 12 12 12 12 12 11 11 10
5 4 3 3 4 4 3 4 5 5 6 5 6 7 8 8 6 3 3 3 4 4 3 3 3 3 3 3 5 9 11 12 12 12 12 12 12 9
4 3 3 3 3 3 3 4 5 5 5 5 4 5 5 6 7 6 5 4 4 4 3 2 2 2 2 3 3 4 5 9 11 12 12 12 10 6
4 4 2 2 3 4 3 4 6 6 5 4 4 4 4 3 4 4 5 5 4 4 3 2 2 2 2 2 2 3 4 4 5 6 10 12 11 8
4 4 4 4 5 6 5 6 7 6 4 4 4 4 3 3 3 4 4 5 5 6 5 3 3 3 3 3 3 2 3 3 4 4 5 7 9 11
4 7 7 8 7 5 6 7 5 4 4 4 4 4 3 4 3 3 3 3 4 5 5 5 4 4 3 3 3 2 2 3 4 4 4 5 5 5
5 6 7 7 5 5 5 4 3 3 3 4 4 4 3 3 2 2 2 2 3 4 4 5 5 4 3 4 3 3 3 3 3 3 3 3 3 4
5 4 3 3 3 3 3 3 3 2 2 3 3 4 3 3 3 3 2 2 3 3 3 2 3 3 4 3 3 4 4 3 3 3 3 3 3 4
3 3 3 3 3 3 4 3 2 3 3 3 3 3 4 4 4 3 2 2 3 3 3 2 2 2 2 3 5 5 4 3 3 3 3 3 3 3
2 3 3 3 3 3 3 3 3 3 3 3 3 4 4 4 4 4 4 3 4 4 3 2 2 2 3 4 4 5 3 3 3 3 3 2 2 2
2 3 3 3 3 3 3 3 4 4 3 3 3 3 3 4 4 4 4 4 4 4 4 3 2 2 3 3 2 2 4 3 3 3 2 1 1 2
3 3 3 4 4 4 3 3 3 4 4 4 4 4 4 4 4 4 4 5 4 3 3 3 3 4 3 2 2 2 2 2 2 2 2 2 2 2
4 4 4 4 4 4 4 4 4 4 5 4 4 4 4 4 5 6 5 4 3 3 3 3 2 2 2 2 3 2 2 1 1 0 1 2 2 3
4 4 4 4 4 4 5 5 5 4 4 4 5 5 5 4 4 5 5 4 4 4 4 3 3 2 2 2 2 2 2 2 1 0 1 2 3 3
Wind_Direction
270 280 282 280 277 275 272 268 275 291 294 289 290 249 225 205 192 209 212 216 220 218 224 230 231 235 241 247 251 251 250 247 243 236 235 236 239 239
265 277 284 285 290 289 284 280 269 269 283 295 283 268 275 280 223 226 232 225 220 217 224 228 226 231 232 235 242 241 245 245 245 242 238 237 241 243
271 273 275 281 289 296 292 287 281 275 279 289 286 270 262 265 255 250 243 229 218 219 222 223 223 228 229 228 233 232 235 238 242 243 240 240 241 244
271 278 286 288 285 283 283 282 283 277 269 282 287 281 270 259 238 248 260 255 242 227 217 218 219 223 226 224 225 226 228 229 234 236 237 239 243 246
271 279 283 285 282 282 279 279 280 285 273 271 279 278 273 272 257 256 258 255 260 248 221 218 219 222 225 225 223 223 224 225 227 230 232 236 241 245
282 281 279 278 277 279 275 272 277 278 276 272 274 276 272 274 263 251 261 247 255 260 243 225 219 220 223 223 221 220 220 221 224 226 228 231 235 239
287 284 280 276 275 272 277 277 277 269 275 278 282 281 279 287 281 275 276 266 257 246 241 239 218 217 221 226 224 222 220 219 219 220 222 226 230 234
290 291 287 264 265 263 264 263 261 263 268 270 275 277 277 278 283 281 285 284 276 243 235 256 238 227 221 216 216 215 217 218 218 219 220 222 226 231
289 289 295 301 291 288 277 266 259 252 244 246 261 267 271 272 276 279 273 271 273 267 258 262 253 248 238 236 217 212 213 214 215 216 218 221 226 230
277 274 280 292 309 305 299 295 285 281 261 241 242 254 260 265 260 258 260 271 271 263 241 254 247 245 254 233 215 213 211 210 212 215 219 222 224 229
280 278 281 293 301 303 301 305 310 307 301 279 249 251 257 261 248 249 252 254 274 273 244 240 254 248 248 239 219 212 209 210 214 218 221 224 226 227
297 277 263 271 283 297 294 299 297 299 307 314 302 274 262 258 243 223 233 244 260 271 250 228 250 260 267 243 215 203 212 220 221 223 226 228 225 219
313 316 321 313 290 283 277 278 279 293 301 298 297 290 276 265 256 238 225 227 242 254 251 249 256 256 257 269 242 214 208 210 211 224 227 227 221 209
306 317 338 335 310 294 280 271 282 296 291 291 289 289 288 282 271 260 245 231 234 247 251 245 252 254 257 265 263 232 222 216 206 209 210 213 220 220
299 311 315 308 304 293 275 276 282 281 280 284 287 285 279 274 273 273 269 256 257 251 249 241 243 250 241 250 259 253 250 236 217 211 206 201 201 200
296 302 302 294 288 284 292 289 271 274 280 286 288 286 285 286 277 275 274 274 267 264 251 239 236 234 247 249 249 255 246 238 231 222 209 204 201 198
326 305 307 317 317 305 294 293 295 303 303 300 304 308 306 300 292 285 274 266 269 270 271 256 242 234 233 241 248 250 250 248 235 221 212 216 208 200
323 298 307 317 320 327 328 325 324 326 323 314 313 314 316 314 307 302 295 291 284 276 275 264 251 259 260 254 232 244 250 250 248 233 219 217 224 210
307 300 308 312 315 321 324 327 332 334 330 325 322 316 315 318 316 315 313 310 303 296 286 282 275 258 264 272 265 228 236 249 241 237 227 208 210 201
279 300 309 315 324 331 336 344 343 337 330 321 321 320 322 323 321 317 314 315 309 309 305 295 288 279 273 275 274 270 244 240 238 240 243 199 179 160
325 324 329 338 346 347 346 348 343 337 340 344 343 337 332 329 323 318 315 315 305 300 308 307 296 283 276 276 273 273 284 263 229 213 217 198 194 194
342 349 352 349 348 348 348 351 350 348 349 348 348 340 331 330 324 317 318 319 309 306 305 303 310 313 299 280 282 284 267 271 297 262 188 196 185 191
355 349 347 346 353 353 352 352 350 347 351 347 336 328 324 323 321 319 322 324 328 331 324 314 312 303 298 293 293 293 298 296 287 128 310 253 203 196